Cedar Rapids, IA

2:43 PM CDT on June 26, 2017 (GMT -0500)
The Eastern Iowa Airport

Weather History for KCID - November, 2013

Change the Weather History Date:

Saturday, November 2, 2013

  Actual Average Record
Temperature  
Mean Temperature 41 °F 44 °F  
Max Temperature 51 °F 54 °F 77 °F (1938)
Min Temperature 30 °F 34 °F 10 °F (1966)
Degree Days  
Heating Degree Days 24 21  
Month to date heating degree days 44 41  
Since 1 July heating degree days 571 651  
Cooling Degree Days 0 0  
Month to date cooling degree days 0 0  
Year to date cooling degree days 884 748  
Moisture  
Dew Point 32 °F    
Average Humidity 66    
Maximum Humidity 92    
Minimum Humidity 39    
Precipitation  
Precipitation 0.00 in 0.07 in 2.70 in (1961)
Month to date precipitation 0.01 0.15  
Year to date precipitation 34.56 31.23  
Sea Level Pressure  
Sea Level Pressure 30.03 in    
Wind  
Wind Speed 10 mph (NW)    
Max Wind Speed 24 mph    
Max Gust Speed 31 mph    
Visibility 10 miles    
Events      
T = Trace of Precipitation, MM = Missing Value Source: NWS Daily Summary

Daily Weather History Graph

Daily Weather History Graph

Search for Another Location

Airport or City:

Trip Planner

Search our weather history database for the weather conditions in past years. The results will help you decide how hot, cold, wet, or windy it might be!

Date:

Astronomy

Nov. 02, 2013 Rise Set
Actual Time 7:40 AM CDT 5:59 PM CDT
Civil Twilight 7:11 AM CDT 6:28 PM CDT
Nautical Twilight 6:38 AM CDT 7:01 PM CDT
Astronomical Twilight 6:06 AM CDT 7:33 PM CDT
Moon 6:37 AM CDT (11/2) 5:31 PM CDT (11/2)
Length of Visible Light 11h 16m
Length of Day
10h 18m
Waning Crescent, 1% of the Moon is Illuminated
Nov 2
Waning Crescent
Nov 3
New
Nov 9
First Quarter
Nov 17
Full
Nov 25
Last Quarter

Hourly Weather History & Observations

Time (CDT) Temp. Windchill Dew Point Humidity Pressure Visibility Wind Dir Wind Speed Gust Speed Precip Events Conditions
12:52 AM 44.1 °F 37.4 °F 37.9 °F 79% 29.83 in 10.0 mi NW 13.8 mph - N/A   Overcast
1:52 AM 42.1 °F 35.7 °F 37.0 °F 82% 29.85 in 10.0 mi NW 11.5 mph - N/A   Mostly Cloudy
2:52 AM 39.9 °F 32.9 °F 37.0 °F 89% 29.87 in 9.0 mi NW 11.5 mph - N/A   Scattered Clouds
3:52 AM 39.0 °F 32.8 °F 35.1 °F 86% 29.89 in 8.0 mi NW 9.2 mph - N/A   Overcast
4:52 AM 39.0 °F 31.0 °F 34.0 °F 82% 29.91 in 10.0 mi NNW 13.8 mph - N/A   Overcast
5:52 AM 37.0 °F 29.8 °F 30.9 °F 79% 29.94 in 10.0 mi NW 10.4 mph - N/A   Clear
6:52 AM 33.1 °F 26.9 °F 28.9 °F 85% 29.98 in 10.0 mi NW 6.9 mph - N/A   Clear
7:52 AM 35.1 °F 28.6 °F 30.9 °F 85% 30.00 in 10.0 mi NW 8.1 mph - N/A   Overcast
8:52 AM 37.9 °F 33.5 °F 34.0 °F 86% 30.03 in 10.0 mi WNW 5.8 mph - N/A   Overcast
9:33 AM 41.0 °F 33.9 °F 35.6 °F 81% 30.02 in 8.0 mi NW 12.7 mph - N/A   Scattered Clouds
9:52 AM 42.1 °F 33.9 °F 36.0 °F 79% 30.05 in 9.0 mi NW 17.3 mph 23.0 mph N/A   Clear
10:52 AM 45.0 °F 37.6 °F 34.0 °F 65% 30.05 in 10.0 mi NW 17.3 mph 24.2 mph N/A   Scattered Clouds
11:31 AM 46.4 °F 40.1 °F 33.8 °F 62% 30.04 in 10.0 mi NNW 15.0 mph - N/A   Mostly Cloudy
11:39 AM 46.4 °F 39.2 °F 33.8 °F 62% 30.04 in 10.0 mi WNW 18.4 mph 24.2 mph N/A   Scattered Clouds
11:52 AM 46.9 °F - 34.0 °F 61% 30.06 in 10.0 mi NW 18.4 mph 25.3 mph N/A   Scattered Clouds
12:52 PM 48.0 °F - 33.1 °F 56% 30.06 in 10.0 mi NW 18.4 mph - N/A   Scattered Clouds
1:52 PM 50.0 °F - 30.9 °F 48% 30.05 in 10.0 mi NW 15.0 mph 29.9 mph N/A   Partly Cloudy
2:52 PM 50.0 °F - 30.0 °F 46% 30.07 in 10.0 mi NW 20.7 mph - N/A   Clear
3:52 PM 51.1 °F - 28.9 °F 43% 30.08 in 10.0 mi NW 18.4 mph - N/A   Partly Cloudy
4:52 PM 50.0 °F - 27.0 °F 41% 30.09 in 10.0 mi NW 17.3 mph - N/A   Clear
5:52 PM 44.1 °F 40.1 °F 28.0 °F 53% 30.11 in 10.0 mi NW 6.9 mph - N/A   Clear
6:52 PM 42.1 °F 40.2 °F 28.0 °F 58% 30.12 in 10.0 mi NNW 3.5 mph - N/A   Clear
7:52 PM 39.9 °F 37.8 °F 28.0 °F 63% 30.14 in 10.0 mi WNW 3.5 mph - N/A   Clear
8:52 PM 37.9 °F - 28.0 °F 68% 30.15 in 10.0 mi Calm Calm - N/A   Clear
9:52 PM 34.0 °F - 27.0 °F 75% 30.16 in 10.0 mi Calm Calm - N/A   Clear
10:52 PM 32.0 °F - 27.0 °F 82% 30.16 in 10.0 mi Calm Calm - N/A   Clear
11:52 PM 34.0 °F - 28.0 °F 79% 30.17 in 10.0 mi Calm Calm - N/A   Clear